COSMOS 2251 DEB, 35660

Orbit data source: Space-Track

COSMOS 2251 DEB, 35660 is space debris in LEO originally from a launch on Wed, 16 Jun 1993 UTC launched from the Plesetsk Missile And Space Complex (PKMTR). The debris from Iridium 33, an American commercial communications satellite, has been tracked extensively since its accidental collision with the defunct Russian satellite Cosmos 2251 in 2009. This event, occurring at high speed in low Earth orbit (LEO), generated thousands of pieces of space debris, significantly increasing the risk of further collisions. The Iridium 33 debris cloud has impacted space traffic management and orbital debris mitigation strategies, making it a subject of ongoing study in space situational awareness.

Loading next visibility...
Identifier
35660, 1993-036APB
Orbit
LEO
Country
Flag of CISCIS
Related business
Manufacturer
Unknown
Mission
Spacecraft
Bus & Motor
Unknown
Mass
Unknown
Launch date (UTC)
1993-06-16 (33 years ago)
Launch vehicle
Unknown
Launch site
Plesetsk Missile And Space Complex (PKMTR)
Object type
Payload
Rocket body
Debris
Shape & HBR
Unknown shape, 0.1 m
Radar Cross Section
Small (<0.1 m²)

Expand to show TLE details & history
Last TLE update: 2 days ago

TLE from 2 days ago
0 COSMOS 2251 DEB
1 35660U 93036APB 26206.89209948  .00001225  00000-0  31880-3 0  9999
2 35660  74.0391  70.3356 0017596 163.7195 209.4638 14.50581748691359
Epoch: 2026-07-25T21:24Z
TLE epoch observation values (Epoch: 2026-07-25T21:24:37.395Z)
Latitude
12.53772°
Longitude
169.20908°
Altitude
736.507 km
Speed
7.482 km/s
True Right ascension
04h 55m 51s
True Declination
12° 27' 53"
Sunlit
Object was in daylight at epoch
Visualization orbit readout
Latitude
Unknown
Longitude
Unknown
Altitude
Unknown
Speed
Unknown
Apparent Right ascension
Unknown
Apparent Declination
Unknown
Sunlit
N/A
Visualization observer readout
Local Sidereal Time
00:48:36
Azimuth
Unknown
Elevation
Unknown
Doppler factor
Unknown
Orbital elements
Apogee altitude
733.849 km
Perigee altitude
708.864 km
Semi-major axis
7,099.494 km
Eccentricity
0.00176
Inclination
74.0391°
RAAN
70.3356°
Arg. of periapsis
163.7195°
True anomaly
209.36481°
Mean anomaly
209.4638°
Eccentric anomaly
209.41429°
Mean motion
3.62829 °/min
Orbital period
99.22 mins
BSTAR
0.0003188
Loading maneuver chart data...
Computing Atmospheric mass density...

Documentation

Showing up to 5 results
|